BREEZE-KM DEB, 41721

Orbit data source: Space-Track

BREEZE-KM DEB, 41721 is space debris in LEO originally from a launch on Tue, 31 Mar 2015 UTC launched from the Plesetsk Missile And Space Complex (PKMTR). Debris objects in space refer to the collection of defunct objects orbiting the Earth. Examples of debris include non-operational satellites, rocket bodies, and fragments generated from explosions, collisions, or faulty payload assembly.

Loading next visibility...
Identifier
41721, 2015-020J
Orbit
LEO
Country
Flag of CISCIS
Related business
Manufacturer
Khrunichev
Mission
Spacecraft
Bus & Motor
Unknown
Mass
Unknown
Launch date (UTC)
2015-03-31 (11 years ago)
Launch vehicle
Unknown
Launch site
Plesetsk Missile And Space Complex (PKMTR)
Object type
Payload
Rocket body
Debris
Shape & HBR
Unknown shape, 0.1 m
Radar Cross Section
Small (<0.1 m²)

Expand to show TLE details & history
Last TLE update: 17 hours ago

TLE from 17 hours ago
0 BREEZE-KM DEB
1 41721U 15020J   25297.52460796  .00000081  00000-0  30164-3 0  9993
2 41721  82.4962  31.1551 0243727 323.2951  35.1664 12.74728535482164
Epoch: 2025-10-24T12:35Z
TLE epoch observation values (Epoch: 2025-10-24T12:35:26.127Z)
Latitude
0.00002°
Longitude
169.12797°
Altitude
1,212.801 km
Speed
7.319 km/s
True Right ascension
02h 04m 37s
True Declination
0° 00' 00"
Sunlit
Object was in full shadow at epoch
Visualization orbit readout
Latitude
Unknown
Longitude
Unknown
Altitude
Unknown
Speed
Unknown
Apparent Right ascension
Unknown
Apparent Declination
Unknown
Sunlit
N/A
Visualization observer readout
Local Sidereal Time
01:10:09
Azimuth
Unknown
Elevation
Unknown
Doppler factor
Unknown
Orbital elements
Apogee altitude
1,548.642 km
Perigee altitude
1,171.441 km
Semi-major axis
7,738.179 km
Eccentricity
0.02437
Inclination
82.4962°
RAAN
31.1551°
Arg. of periapsis
323.2951°
True anomaly
36.8158°
Mean anomaly
35.1664°
Eccentric anomaly
35.98696°
Mean motion
3.18849 °/min
Orbital period
112.91 mins
BSTAR
0.00030164
Loading maneuver chart data...
Computing Atmospheric mass density...
Loading historical data...
Loading historical data...
Loading historical data...
Loading historical data...
Loading historical data...
Loading historical data...
Loading historical data...

Documentation

Showing up to 5 results
|